Cadillac, MI

3:06 PM EDT on August 25, 2019 (GMT -0400)
Wexford County

Weather History for KCAD - June, 2019

Change the Weather History Date:

Sunday, June 9, 2019

  Actual Average Record
Temperature  
Mean Temperature 64 °F -  
Max Temperature 72 °F 73 °F 89 °F (1968)
Min Temperature 56 °F 49 °F 32 °F (1971)
Degree Days  
Heating Degree Days 1    
Growing Degree Days 14 (Base 50)    
Moisture  
Dew Point 57 °F    
Average Humidity 78    
Maximum Humidity 95    
Minimum Humidity 52    
Precipitation  
Precipitation 0.00 in - - ()
Sea Level Pressure  
Sea Level Pressure 30.04 in    
Wind  
Wind Speed 5 mph (ESE)    
Max Wind Speed 12 mph    
Max Gust Speed 16 mph    
Visibility 8 miles    
Events Rain    
Averages and records for this station are not official NWS values.
T = Trace of Precipitation, MM = Missing Value Source: NWS Daily Summary

Daily Weather History Graph

Daily Weather History Graph

Search for Another Location

Airport or City:

Astronomy

Jun. 09, 2019 Rise Set
Actual Time 5:57 AM EDT 9:24 PM EDT
Civil Twilight 5:21 AM EDT 10:00 PM EDT
Nautical Twilight 4:34 AM EDT 10:48 PM EDT
Astronomical Twilight 3:33 AM EDT 11:48 PM EDT
Moon 12:43 PM EDT (6/9) 1:56 AM EDT (6/9)
Length of Visible Light 16h 38m
Length of Day
15h 26m
Waxing Crescent, 43% of the Moon is Illuminated
Jun 9
Waxing Crescent
Jun 10
First Quarter
Jun 17
Full
Jun 25
Last Quarter
Jul 2
New

Hourly Weather History & Observations

Time (EDT) Temp. Dew Point Humidity Pressure Visibility Wind Dir Wind Speed Gust Speed Precip Events Conditions
12:15 AM 65.8 °F 51.1 °F 59% 30.09 in 10.0 mi ESE 9.2 mph - N/A   Clear
12:39 AM 64.0 °F 51.3 °F 63% 30.09 in 10.0 mi ESE 8.1 mph - N/A   Clear
12:57 AM 63.0 °F 51.3 °F 66% 30.09 in 10.0 mi ESE 6.9 mph - N/A   Clear
1:15 AM 61.5 °F 51.4 °F 69% 30.09 in 10.0 mi ESE 6.9 mph - N/A   Clear
1:35 AM 61.2 °F 51.8 °F 71% 30.10 in 10.0 mi ESE 6.9 mph - N/A   Clear
1:36 AM 61.2 °F 51.6 °F 71% 30.10 in 10.0 mi ESE 6.9 mph - N/A   Clear
1:55 AM 61.9 °F 51.3 °F 68% 30.10 in 10.0 mi ESE 3.5 mph - N/A   Clear
2:18 AM 61.0 °F 50.9 °F 69% 30.09 in 10.0 mi East 4.6 mph - N/A   Clear
2:36 AM 60.3 °F 50.4 °F 70% 30.08 in 10.0 mi East 4.6 mph - N/A   Clear
2:55 AM 57.6 °F 50.2 °F 76% 30.09 in 10.0 mi Calm Calm - N/A   Clear
2:56 AM 57.4 °F 50.4 °F 77% 30.09 in 10.0 mi Calm Calm - N/A   Clear
3:15 AM 56.8 °F 50.4 °F 79% 30.09 in 10.0 mi Calm Calm - N/A   Clear
3:16 AM 57.0 °F 50.7 °F 79% 30.09 in 10.0 mi Calm Calm - N/A   Clear
3:39 AM 57.0 °F 50.0 °F 77% 30.08 in 10.0 mi East 4.6 mph - N/A   Clear
3:57 AM 59.2 °F 49.6 °F 71% 30.08 in 10.0 mi East 5.8 mph - N/A   Clear
4:15 AM 59.0 °F 49.6 °F 71% 30.08 in 10.0 mi East 4.6 mph - N/A   Clear
4:16 AM 59.0 °F 49.6 °F 71% 30.08 in 10.0 mi East 4.6 mph - N/A   Clear
4:35 AM 57.9 °F 49.5 °F 73% 30.08 in 10.0 mi Calm Calm - N/A   Clear
4:36 AM 57.7 °F 49.5 °F 74% 30.08 in 10.0 mi Calm Calm - N/A   Clear
4:55 AM 58.1 °F 49.5 °F 73% 30.08 in 10.0 mi Calm Calm - N/A   Clear
5:00 AM 58.5 °F 49.3 °F 72% 30.07 in 10.0 mi ENE 3.5 mph - N/A   Clear
5:18 AM 58.6 °F 49.5 °F 72% 30.07 in 10.0 mi East 5.8 mph - N/A   Clear
5:36 AM 57.4 °F 49.6 °F 75% 30.08 in 10.0 mi East 4.6 mph - N/A   Clear
5:55 AM 59.2 °F 48.7 °F 68% 30.08 in 10.0 mi ENE 3.5 mph - N/A   Clear
6:15 AM 58.1 °F 48.7 °F 71% 30.07 in 10.0 mi Calm Calm - N/A   Clear
6:39 AM 58.3 °F 48.9 °F 71% 30.07 in 10.0 mi ENE 4.6 mph - N/A   Clear
6:57 AM 58.3 °F 50.0 °F 74% 30.08 in 10.0 mi ENE 4.6 mph - N/A   Clear
7:15 AM 59.5 °F 49.3 °F 69% 30.08 in 10.0 mi ENE 3.5 mph - N/A   Clear
7:16 AM 59.7 °F 49.3 °F 68% 30.08 in 10.0 mi ENE 3.5 mph - N/A   Clear
7:35 AM 61.3 °F 48.6 °F 63% 30.08 in 10.0 mi ENE 3.5 mph - N/A   Clear
7:36 AM 61.5 °F 48.6 °F 62% 30.08 in 10.0 mi ENE 3.5 mph - N/A   Clear
7:55 AM 63.0 °F 48.6 °F 59% 30.08 in 10.0 mi East 5.8 mph - N/A   Clear
8:00 AM 63.0 °F 48.6 °F 59% 30.08 in 10.0 mi East 5.8 mph - N/A   Clear
8:18 AM 64.4 °F 47.8 °F 55% 30.08 in 10.0 mi ESE 6.9 mph - N/A   Clear
8:36 AM 65.8 °F 48.4 °F 53% 30.08 in 10.0 mi ESE 6.9 mph - N/A   Clear
8:55 AM 67.5 °F 49.3 °F 52% 30.07 in 10.0 mi East 6.9 mph - N/A   Clear
9:15 AM 66.9 °F 49.6 °F 54% 30.07 in 10.0 mi ESE 5.8 mph - N/A   Clear
9:39 AM 66.9 °F 50.9 °F 56% 30.07 in 10.0 mi SE 4.6 mph - N/A   Clear
9:57 AM 68.2 °F 52.2 °F 56% 30.07 in 10.0 mi ESE 6.9 mph - N/A   Scattered Clouds
10:15 AM 68.9 °F 52.9 °F 57% 30.07 in 10.0 mi SE 4.6 mph - N/A   Mostly Cloudy
10:16 AM 68.9 °F 52.9 °F 57% 30.07 in 10.0 mi SE 4.6 mph - N/A   Mostly Cloudy
10:35 AM 68.9 °F 53.4 °F 58% 30.06 in 10.0 mi ESE 6.9 mph - N/A   Overcast
10:36 AM 68.9 °F 53.4 °F 58% 30.06 in 10.0 mi SE 6.9 mph - N/A   Overcast
10:58 AM 70.0 °F 54.3 °F 57% 30.06 in 10.0 mi SE 9.2 mph - N/A   Overcast
11:17 AM 70.7 °F 55.0 °F 58% 30.05 in 10.0 mi ESE 8.1 mph - N/A   Overcast
11:35 AM 71.4 °F 55.4 °F 57% 30.05 in 10.0 mi East 8.1 mph - N/A   Overcast
11:55 AM 71.8 °F 55.9 °F 57% 30.05 in 10.0 mi SE 11.5 mph - N/A   Overcast
12:15 PM 72.1 °F 56.7 °F 58% 30.05 in 10.0 mi SE 11.5 mph 16.1 mph N/A   Overcast
12:38 PM 72.3 °F 57.9 °F 60% 30.05 in 10.0 mi ESE 8.1 mph - N/A   Overcast
12:56 PM 72.7 °F 58.3 °F 60% 30.05 in 10.0 mi ESE 10.4 mph - N/A   Overcast
1:15 PM 71.6 °F 58.1 °F 62% 30.05 in 10.0 mi SE 9.2 mph - N/A   Overcast
1:35 PM 69.1 °F 60.6 °F 74% 30.05 in 10.0 mi South 6.9 mph - N/A Rain Rain
1:59 PM 68.9 °F 62.1 °F 79% 30.04 in 10.0 mi South 3.5 mph - N/A Rain Light Rain
2:17 PM 69.4 °F 62.4 °F 78% 30.04 in 10.0 mi Calm Calm - N/A   Drizzle
2:35 PM 70.3 °F 61.9 °F 74% 30.04 in 10.0 mi SE 5.8 mph - N/A   Light Drizzle
2:36 PM 70.3 °F 62.1 °F 75% 30.04 in 10.0 mi SE 6.9 mph - N/A   Light Drizzle
2:55 PM 69.1 °F 63.1 °F 81% 30.04 in 10.0 mi ESE 8.1 mph - N/A Rain Light Rain
2:56 PM 69.1 °F 63.1 °F 81% 30.04 in 10.0 mi ESE 8.1 mph - N/A Rain Light Rain
3:15 PM 68.2 °F 64.2 °F 87% 30.03 in 10.0 mi SE 8.1 mph - N/A Rain Light Rain
3:38 PM 67.5 °F 65.5 °F 93% 30.03 in 10.0 mi SE 8.1 mph - N/A Rain Light Rain
3:56 PM 67.5 °F 65.8 °F 95% 30.03 in 10.0 mi ESE 5.8 mph - N/A Rain Light Rain
4:15 PM 66.9 °F 65.3 °F 95% 30.03 in 7.0 mi SE 9.2 mph - N/A Rain Light Rain
4:16 PM 66.7 °F 65.3 °F 95% 30.03 in 7.0 mi SE 9.2 mph - N/A Rain Light Rain
4:35 PM 66.4 °F 64.8 °F 95% 30.02 in 5.0 mi ESE 6.9 mph - N/A Rain Rain
4:59 PM 66.4 °F 64.8 °F 95% 30.02 in 10.0 mi ESE 9.2 mph - N/A Rain Light Rain
5:17 PM 66.4 °F 64.8 °F 95% 30.02 in 7.0 mi SE 8.1 mph - N/A Rain Rain
5:35 PM 66.6 °F 64.9 °F 95% 30.02 in 7.0 mi SE 8.1 mph - N/A Rain Rain
5:36 PM 66.6 °F 64.9 °F 95% 30.01 in 7.0 mi SE 6.9 mph - N/A Rain Rain
5:55 PM 66.4 °F 64.8 °F 95% 30.01 in 5.0 mi ESE 6.9 mph - N/A Rain Heavy Rain
5:56 PM 66.4 °F 64.8 °F 95% 30.01 in 5.0 mi ESE 5.8 mph - N/A   Heavy Drizzle
6:15 PM 66.4 °F 64.8 °F 95% 30.01 in 5.0 mi SE 8.1 mph - N/A Rain Light Rain
6:38 PM 66.4 °F 64.8 °F 95% 30.00 in 7.0 mi ESE 6.9 mph - N/A   Drizzle
6:56 PM 66.4 °F 64.8 °F 95% 30.00 in 10.0 mi SE 8.1 mph - N/A   Drizzle
7:15 PM 66.4 °F 64.8 °F 95% 29.99 in 4.0 mi SE 3.5 mph - N/A Rain Rain
7:35 PM 66.2 °F 64.6 °F 94% 29.99 in 3.0 mi SE 4.6 mph - N/A Rain Rain
7:55 PM 66.0 °F 64.4 °F 94% 29.98 in 3.0 mi SE 6.9 mph - N/A Rain Rain
7:56 PM 66.0 °F 64.4 °F 94% 29.98 in 3.0 mi SE 6.9 mph - N/A Rain Rain
8:15 PM 65.8 °F 64.4 °F 95% 29.98 in 4.0 mi ESE 5.8 mph - N/A Rain Rain
8:16 PM 65.8 °F 64.4 °F 95% 29.98 in 4.0 mi ESE 5.8 mph - N/A Rain Rain
8:35 PM 65.8 °F 64.2 °F 94% 29.98 in 4.0 mi SE 4.6 mph - N/A Rain Rain
8:40 PM 65.7 °F 64.0 °F 94% 29.98 in 3.0 mi SE 5.8 mph - N/A Rain Rain
8:57 PM 65.8 °F 64.4 °F 95% 29.98 in 3.0 mi Calm Calm - N/A Rain Rain
9:16 PM 65.8 °F 64.4 °F 95% 29.97 in 4.0 mi Calm Calm - N/A Rain Rain
9:35 PM 65.8 °F 64.4 °F 95% 29.97 in 4.0 mi Calm Calm - N/A Rain Light Rain
9:36 PM 65.8 °F 64.4 °F 95% 29.97 in 4.0 mi Calm Calm - N/A Rain Light Rain
9:55 PM 65.8 °F 64.4 °F 95% 29.96 in 4.0 mi SE 5.8 mph - N/A Rain Rain
9:56 PM 65.8 °F 64.4 °F 95% 29.96 in 5.0 mi SE 5.8 mph - N/A Rain Rain
10:19 PM 66.2 °F 64.4 °F 94% 29.96 in 7.0 mi SSE 4.6 mph - N/A Rain Rain
10:37 PM 65.8 °F 64.4 °F 95% 29.96 in 5.0 mi Calm Calm - N/A Rain Rain
10:55 PM 66.0 °F 64.4 °F 94% 29.96 in 5.0 mi Calm Calm - N/A Rain Rain
10:56 PM 66.0 °F 64.4 °F 94% 29.96 in 5.0 mi Calm Calm - N/A Rain Rain
11:15 PM 65.8 °F 64.4 °F 95% 29.95 in 4.0 mi SE 3.5 mph - N/A Rain Heavy Rain
11:16 PM 65.8 °F 64.4 °F 95% 29.95 in 4.0 mi SSE 3.5 mph - N/A Rain Heavy Rain
11:35 PM 65.8 °F 64.4 °F 95% 29.94 in 4.0 mi SE 3.5 mph - N/A Rain Heavy Rain
11:58 PM 65.8 °F 64.4 °F 95% 29.93 in 5.0 mi Calm Calm - N/A Rain Rain